#timestamp,LO_Frequency,Hit,StdDev 
1647417615.9,286047001.0,N
1647417635.7,286047000.2,N
1647417655.5,286047001.1,N
1647417675.4,286047000.3,N
1647417695.2,286046999.0,N
1647417715.0,286046999.3,N
1647417715.9,286046999.3,N
1647417735.8,286046999.2,N
1647417755.6,286046999.7,N
1647417775.5,286047000.3,N
1647417795.3,286046998.6,N
1647417815.1,286047000.6,N
1647417835.9,286047000.8,N
1647417855.7,286046997.1,N
1647417875.6,286046996.7,N
1647417895.4,286046998.7,N
1647417915.2,286046999.2,N
1647417935.1,286047001.1,N
1647417936.0,286047001.1,N
1647417955.8,286047002.2,N
1647417975.7,286047001.8,N
1647417995.5,286047004.0,Y
1647418015.3,286047001.9,P
1647418035.2,286047001.3,N
1647418055.0,286047002.2,N
1647418055.9,286047002.2,N
1647418075.8,286047002.2,N
1647418095.6,286047002.3,N
1647418115.4,286047000.7,N
1647418135.3,286046999.3,N
1647418155.1,286046998.3,N
1647418175.8,286047002.6,N
1647418195.7,286047002.1,N
1647418215.5,286047000.1,N
1647418235.4,286047000.4,N
1647418255.2,286047002.5,N
1647418275.0,286047000.1,N
1647418275.9,286047000.1,N
1647418295.8,286047002.4,N
1647418315.6,286047001.9,N
1647418335.5,286047002.3,N
1647418355.3,286047000.6,N
1647418375.1,286047000.9,N
1647418395.9,286046998.1,N
1647418415.7,286047000.4,N
1647418435.6,286047002.4,N
1647418455.4,286047001.9,N
1647418475.2,286047000.5,N
1647418495.1,286047001.2,N
1647418496.0,286047001.2,N
1647418515.8,286046999.7,N
1647418535.6,286046998.5,N
1647418555.5,286047001.0,N
1647418575.3,286047000.8,N
1647418595.2,286047000.0,N
1647418615.9,286047002.3,N
1647418635.7,286047001.6,N
1647418655.6,286046999.7,N
1647418675.4,286047003.9,Y
1647418695.2,286047002.3,P
1647418715.1,286047000.0,N
1647418716.0,286047000.0,N
1647418735.8,286047000.0,N
1647418755.7,286047000.3,N
1647418775.5,286046999.0,N
1647418795.3,286046999.6,N
1647418815.2,286046998.6,N
1647418835.0,286047001.0,N
1647418835.9,286047001.0,N
1647418855.8,286047000.0,N
1647418875.6,286046999.9,N
1647418895.4,286047002.8,Y
1647418915.3,286047002.7,P
1647418935.1,286046998.2,N
1647418955.8,286046996.5,N
1647418975.7,286046999.5,N
1647418995.5,286046999.3,N
1647419015.4,286046998.7,N
1647419035.2,286046998.7,N
1647419055.0,286046999.6,N
1647419055.9,286046999.6,N
1647419075.8,286046997.1,N
1647419095.6,286046996.5,N
1647419115.5,286046997.0,N
1647419135.3,286046998.0,N
1647419155.1,286046996.5,N
1647419175.9,286046998.4,N
1647419195.7,286046998.7,N
1647419215.5,286047001.2,N
1647419235.4,286047000.6,N
1647419255.2,286046997.6,N
1647419275.1,286046993.4,Y
1647419276.0,286046993.4,P
1647419295.8,286046996.8,N
1647419315.6,286046996.5,N
1647419335.5,286047000.6,N
1647419355.3,286047001.1,N
1647419375.2,286047000.2,N
1647419395.9,286047002.1,N
1647419415.7,286047002.7,N
1647419435.6,286047001.9,N
1647419455.4,286047002.5,N
1647419475.2,286047001.6,N
1647419495.1,286047000.5,N
1647419496.0,286047000.5,N
1647419515.8,286047000.7,N
1647419535.7,286046999.8,N
1647419555.5,286047002.6,N
1647419575.3,286047000.2,N
1647419595.2,286047001.9,N
1647419615.0,286047002.0,N
1647419615.9,286047002.0,N
1647419635.8,286047002.4,N
1647419655.6,286047000.1,N
1647419675.4,286047001.3,N
1647419695.3,286047003.9,N
1647419715.1,286047003.8,N
1647419735.8,286047001.3,N
1647419755.7,286047003.5,N
1647419775.5,286047003.6,N
1647419795.4,286047001.6,N
1647419815.2,286047000.4,N
1647419835.0,286047002.4,N
1647419835.9,286047002.4,N
1647419855.8,286047001.3,N
1647419875.6,286047004.1,Y
1647419895.5,286047002.7,P
1647419915.3,286047002.4,P
1647419935.1,286047001.6,P
1647419955.9,286047003.8,Y
1647419975.7,286046999.1,P
1647419995.6,286046997.5,N
1647420015.4,286046997.8,N
1647420035.2,286046996.5,N
1647420055.1,286046997.6,N
1647420056.0,286046997.6,N
1647420075.8,286046994.9,Y
1647420095.7,286047000.6,P
1647420115.5,286046998.6,N
1647420135.3,286046999.9,N
1647420155.2,286046999.6,N
1647420175.0,286046996.6,Y
1647420175.9,286046996.6,P
1647420195.8,286046996.5,N
1647420215.6,286046999.1,N
1647420235.5,286047001.2,N
1647420255.3,286047002.7,N
1647420275.1,286047000.9,N
1647420295.9,286046998.3,N
1647420315.7,286046998.7,N
1647420335.6,286046998.7,N
1647420355.4,286046998.6,N
1647420375.2,286047001.2,N
1647420395.1,286047000.0,N
1647420396.0,286047000.0,N
1647420415.8,286046999.3,N
1647420435.6,286046998.9,N
1647420455.5,286047002.8,N
1647420475.3,286047002.7,N
1647420495.2,286047002.0,N
1647420515.9,286046998.2,N
1647420535.7,286046999.8,N
1647420555.6,286047002.0,N
1647420575.4,286046999.7,N
1647420595.3,286047000.1,N
1647420615.1,286047000.5,N
1647420616.0,286047000.5,N
1647420635.8,286047002.2,N
1647420655.7,286047002.8,N
1647420675.5,286047001.1,N
1647420695.3,286046998.4,N
1647420715.2,286046998.9,N
1647420735.0,286046998.7,N
1647420735.9,286046998.7,N
1647420755.8,286046998.1,N
1647420775.6,286046998.3,N
1647420795.4,286047001.0,N
1647420815.3,286047000.6,N
1647420835.1,286047000.8,N
1647420855.9,286046998.2,N
1647420875.7,286047000.8,N
1647420895.5,286046999.5,N
1647420915.4,286046997.9,N
1647420935.2,286046995.2,Y
1647420955.0,286046993.3,P
1647420955.9,286046993.3,N
1647420975.8,286046995.0,N
1647420995.4,286046996.0,N
1647421015.2,286046997.9,N
1647421035.0,286046995.1,N
1647421035.9,286046995.1,N
1647421055.8,286046996.4,N
1647421075.6,286046993.7,Y
1647421095.5,286046999.5,P
1647421115.3,286046996.6,N
1647421135.1,286046996.7,N
1647421155.9,286046998.0,N
1647421175.7,286046996.6,N
1647421195.6,286046995.3,Y
